CAPE
2 1 0 0 0 0 14 5 0 0 0 0 0 0 0 0 0 0 0 0 0 0 0 0 0 0 0 0 0 0 0 0 0 0 0 0 0 0 0 0 0 0 0
2 0 0 0 0 0 0 0 0 0 0 0 0 0 0 0 0 0 0 0 0 0 0 0 0 0 0 0 0 0 0 0 0 0 0 0 0 0 0 0 0 0 0
0 0 0 0 1 0 0 0 0 0 0 0 0 0 0 0 0 0 0 0 0 0 0 0 0 0 0 0 0 0 0 0 0 0 0 0 0 1 0 0 0 0 0
0 0 0 0 1 0 0 0 0 0 0 0 0 0 0 1 0 0 0 0 0 0 0 0 0 0 0 0 0 0 0 0 0 0 0 0 0 0 0 0 0 0 0
0 0 0 0 0 1 1 0 0 1 1 0 1 0 1 1 1 0 0 0 0 0 0 0 0 0 0 0 0 0 0 0 0 0 0 0 0 0 0 0 0 0 0
0 1 2 1 0 0 1 1 1 1 0 0 0 1 0 1 0 3 0 3 1 0 0 0 0 0 0 0 0 0 0 0 0 0 0 0 0 0 0 0 0 0 0
0 0 0 0 0 1 0 1 0 1 1 1 1 0 0 0 0 1 2 0 1 1 1 0 0 0 0 0 0 0 0 0 0 0 0 0 0 0 0 0 0 0 0
0 0 0 0 0 0 0 0 0 1 1 1 1 1 1 1 2 1 1 0 0 0 1 1 1 0 0 0 0 0 0 0 0 0 0 0 0 0 0 0 0 0 0
0 0 0 0 0 0 0 0 0 0 0 1 2 1 1 1 1 3 1 1 1 1 0 0 0 0 0 0 0 1 2 1 0 0 0 0 0 0 0 0 0 0 0
0 0 0 0 0 0 0 0 0 0 0 0 0 1 1 1 1 1 1 0 1 1 1 1 0 0 0 1 1 1 0 1 0 0 0 1 1 1 0 0 0 0 0
0 0 0 0 0 0 0 0 0 0 0 0 0 0 0 0 0 1 2 0 0 1 2 2 1 1 0 2 0 1 0 0 0 0 0 0 0 0 0 0 0 0 0
0 0 0 0 0 0 0 0 0 0 0 0 0 0 0 0 0 0 1 1 0 0 0 0 0 1 1 2 1 1 2 1 1 1 0 0 0 0 0 0 0 0 0
0 0 0 0 0 0 0 0 0 0 0 0 0 0 0 0 0 0 1 1 1 0 0 0 0 1 1 2 0 1 0 1 0 0 0 0 0 0 0 0 0 0 0
0 0 0 0 0 0 0 0 0 0 0 0 0 0 0 0 0 0 0 0 0 0 0 0 1 0 0 0 1 1 0 0 0 0 0 0 0 0 0 0 0 0 0
0 0 0 0 0 0 0 0 0 0 0 1 0 0 0 0 0 0 0 0 0 0 0 1 0 0 0 0 0 0 0 0 0 0 0 0 0 0 0 0 0 0 0
0 0 0 0 0 0 0 0 0 0 0 0 0 0 0 0 0 1 0 0 0 2 0 0 0 0 0 0 0 0 0 0 0 0 0 0 0 0 0 0 0 0 0
0 0 0 0 0 0 0 0 0 0 0 0 0 1 1 0 0 0 0 0 0 1 0 0 0 0 0 0 0 0 0 0 0 0 0 0 0 0 0 0 0 0 0
0 0 0 0 0 0 0 0 0 0 0 0 0 0 1 0 1 0 0 0 0 0 0 0 0 0 0 0 0 0 0 0 0 0 0 0 0 0 0 0 0 0 0
0 0 0 0 0 0 0 0 0 0 0 0 0 0 0 0 0 0 0 0 0 0 0 0 0 0 0 0 0 0 0 0 0 0 0 0 0 0 0 0 0 0 0
0 0 0 0 0 0 0 0 0 0 0 0 0 0 0 0 0 0 0 0 0 0 0 0 0 0 0 0 0 0 0 0 0 0 0 0 0 0 0 0 0 0 0
0 0 0 0 0 0 0 0 0 0 0 0 0 0 0 0 0 0 0 0 0 0 0 0 0 0 0 0 0 0 0 0 0 0 0 0 0 0 0 0 0 0 0
0 0 0 0 0 0 0 0 0 0 0 0 0 0 0 0 0 0 0 0 0 0 0 0 0 0 0 0 0 0 0 0 0 0 0 0 0 0 0 0 0 0 0
0 0 0 0 0 0 0 0 0 0 0 0 0 0 0 0 0 0 0 0 0 0 0 0 0 0 0 0 0 0 0 0 0 0 0 0 0 0 0 0 0 0 0
0 0 0 0 0 0 0 0 0 0 0 0 0 0 0 0 0 0 0 0 0 0 0 0 0 0 0 0 0 0 0 0 0 0 0 0 0 0 0 0 0 0 0
0 0 0 0 0 0 0 0 0 0 0 0 0 0 0 0 0 0 0 0 0 0 0 0 0 0 0 0 0 0 0 0 0 0 0 0 0 0 0 0 0 0 0
0 0 0 0 0 0 0 0 0 0 0 0 0 0 0 0 0 0 0 0 0 0 0 0 0 0 0 0 0 0 0 0 0 0 0 0 0 0 0 0 0 0 0
CIN
0 0 0 0 0 0 -67 -70 -7 0 0 0 0 0 0 0 0 0 0 0 0 0 0 0 0 0 0 0 0 0 0 0 0 0 0 0 0 0 0 0 0 0 0
0 0 0 0 0 0 0 -2 0 0 0 0 0 0 0 0 0 0 0 0 0 0 0 0 0 0 0 0 0 0 0 0 0 0 0 0 0 0 0 0 0 0 0
0 0 0 0 0 0 0 0 0 0 0 0 0 0 0 0 0 0 0 0 0 0 0 0 0 0 0 0 0 0 0 0 0 0 0 0 0 0 0 0 0 0 0
0 0 0 0 0 0 0 0 0 0 0 0 0 0 0 0 0 0 0 0 0 0 0 0 0 0 0 0 0 0 0 0 0 0 0 0 0 0 0 0 0 0 0
0 0 0 0 0 0 0 0 0 0 0 0 0 0 0 0 0 0 0 0 0 0 0 0 0 0 0 0 0 0 0 0 0 0 0 0 0 0 0 0 0 0 0
0 0 0 0 0 0 0 0 0 0 0 0 0 0 0 0 0 0 0 0 0 0 0 0 0 0 0 0 0 0 0 0 0 0 0 0 0 0 0 0 0 0 0
0 0 0 0 0 0 0 0 0 0 0 0 0 0 0 0 0 0 0 0 0 0 0 0 0 0 0 0 0 0 0 0 0 0 0 0 0 0 0 0 0 0 0
0 0 0 0 0 0 0 0 0 0 0 0 0 0 0 0 0 0 0 0 0 0 0 0 0 0 0 0 0 0 0 0 0 0 0 0 0 0 0 0 0 0 0
0 0 0 0 0 0 0 0 0 0 0 0 0 0 0 0 0 0 0 0 0 0 0 0 0 0 0 0 0 0 0 0 0 0 0 0 0 0 0 0 0 0 0
0 0 0 0 0 0 0 0 0 0 0 0 0 0 0 0 0 0 0 0 0 0 0 0 0 0 0 0 0 0 0 0 0 0 0 0 0 0 0 0 0 0 0
0 0 0 0 0 0 0 0 0 0 0 0 0 0 0 0 0 0 0 0 0 0 0 0 0 0 0 0 0 0 0 0 0 0 0 0 0 0 0 0 0 0 0
0 0 0 0 0 0 0 0 0 0 0 0 0 0 0 0 0 0 0 0 0 0 0 0 0 0 0 0 0 0 0 0 0 0 0 0 0 0 0 0 0 0 0
0 0 0 0 0 0 0 0 0 0 0 0 0 0 0 0 0 0 0 0 0 0 0 0 0 0 0 0 0 0 0 0 0 0 0 0 0 0 0 0 0 0 0
0 0 0 0 0 0 0 0 0 0 0 0 0 0 0 0 0 0 0 0 -1 0 0 0 0 0 0 0 0 0 0 0 0 0 0 0 0 0 0 0 0 0 0
0 0 0 0 0 0 0 0 0 0 0 0 0 0 0 0 0 0 0 0 0 0 0 0 0 0 0 0 0 0 0 0 0 0 0 0 0 0 0 0 0 0 0
0 0 0 0 0 0 0 0 0 0 0 0 0 0 0 0 0 0 0 0 0 0 0 0 0 0 0 0 0 0 0 0 0 0 0 0 0 0 0 0 0 0 0
0 0 0 0 0 0 0 0 0 0 0 0 0 0 0 0 0 0 0 0 0 0 0 0 0 0 0 0 0 0 0 0 0 0 0 0 0 0 0 0 0 0 0
0 0 0 0 0 0 0 0 0 0 0 0 0 0 0 0 0 -1 0 0 0 0 0 0 0 0 0 0 0 0 0 0 0 0 0 0 0 0 0 0 0 0 0
0 0 0 0 0 0 0 0 0 0 0 0 0 0 0 0 0 0 0 0 0 0 0 0 0 0 0 0 0 0 0 0 0 0 0 0 0 0 0 0 0 0 0
0 0 0 0 0 0 0 0 0 0 0 0 0 0 0 0 0 0 0 0 0 0 0 0 0 0 0 0 0 0 0 0 0 0 0 0 0 0 0 0 0 0 0
0 0 0 0 0 0 0 0 0 0 0 0 0 0 0 0 0 0 0 0 0 0 0 0 0 0 0 0 0 0 0 0 0 0 0 0 0 0 0 0 0 0 0
0 0 0 0 0 0 0 0 0 0 0 0 0 0 0 0 0 0 0 0 0 0 0 0 0 0 0 0 0 0 0 0 0 0 0 0 0 0 0 0 0 0 0
0 0 0 0 0 0 0 0 0 0 0 0 0 0 0 0 0 0 0 0 0 0 0 0 0 0 0 0 0 0 0 0 0 0 0 0 0 0 0 0 0 0 0
0 0 0 0 0 0 0 0 0 0 0 0 0 0 0 0 0 0 0 0 0 0 0 0 0 0 0 0 0 0 0 0 0 0 0 0 0 0 0 0 0 0 0
0 0 0 0 0 0 0 0 0 0 0 0 0 0 0 0 0 0 0 0 0 0 0 0 0 0 0 0 0 0 0 0 0 0 0 0 0 0 0 0 0 0 0
0 0 0 0 0 0 0 0 0 0 0 0 0 0 0 0 0 0 0 0 0 0 0 0 0 0 0 0 0 0 0 0 0 0 0 0 0 0 0 0 0 0 0
Wind_Speed
27 28 27 29 31 33 34 34 33 33 32 33 32 32 33 35 37 36 35 33 35 36 34 34 34 33 33 32 30 29 28 27 32 28 25 24 23 23 23 22 23 24 24
23 23 24 24 26 27 31 33 33 35 33 31 29 30 32 34 34 36 37 35 32 33 36 35 35 32 33 32 31 30 29 28 29 31 27 26 25 24 24 24 25 25 26
20 21 21 22 23 26 29 31 31 32 33 34 34 30 32 31 31 32 33 34 34 35 35 35 35 33 35 33 32 31 29 28 28 29 28 26 26 24 25 26 26 26 27
17 20 23 25 25 27 29 29 32 33 34 33 36 37 36 33 31 28 28 31 32 33 32 32 31 30 32 31 31 31 30 29 29 29 29 29 28 26 26 28 29 28 29
16 19 22 25 25 27 28 29 30 32 34 33 35 37 36 38 34 32 31 30 29 32 34 33 31 30 30 30 30 28 27 28 27 29 31 30 29 29 28 27 28 28 29
14 18 21 24 27 29 29 29 28 29 29 32 33 34 36 38 38 35 35 33 34 36 38 37 37 37 36 35 33 31 29 30 32 32 34 34 30 29 26 26 25 28 32
13 16 18 21 24 26 27 28 28 29 28 29 30 31 33 32 32 32 34 35 34 36 37 36 35 34 33 34 34 34 34 33 32 31 32 30 29 27 23 24 25 28 31
13 15 17 19 21 22 23 25 27 28 29 30 29 30 31 32 32 32 32 32 33 35 36 35 38 36 34 32 32 35 35 33 32 30 28 28 26 24 25 26 26 27 29
16 17 19 19 20 20 21 22 24 26 28 30 30 30 31 32 32 32 31 32 33 34 32 31 31 31 31 30 31 34 32 31 28 28 26 24 24 24 24 25 27 28 31
18 19 20 20 20 20 21 21 22 23 25 26 28 29 31 32 32 33 33 33 36 35 34 34 33 33 32 29 30 29 31 28 25 25 26 26 26 24 22 23 22 26 28
19 19 19 20 20 21 21 22 22 22 22 23 25 26 27 28 31 32 33 33 36 36 37 35 34 33 32 30 30 31 31 27 26 27 26 25 22 21 22 22 21 23 26
21 21 21 21 21 22 22 22 22 23 23 24 24 25 25 26 27 28 29 28 29 33 35 33 32 31 30 29 28 28 26 25 26 27 27 26 25 24 23 21 21 21 21
23 22 23 22 22 22 22 23 23 23 23 24 25 26 26 25 25 22 20 22 24 28 27 28 28 28 26 25 23 22 21 23 25 26 26 26 24 21 20 19 21 21 20
25 25 25 24 24 24 23 23 24 24 24 24 25 26 26 25 24 24 23 25 25 25 24 24 24 22 20 20 19 18 19 20 22 23 23 21 19 19 21 19 21 20 21
27 27 27 26 26 26 25 24 25 24 24 26 26 26 26 26 25 24 23 21 21 21 20 20 19 19 19 19 20 20 19 19 20 19 19 18 18 18 19 17 18 18 21
30 29 29 28 28 27 27 27 25 24 25 25 25 25 25 26 27 26 24 22 19 17 18 17 17 17 17 17 17 17 17 17 17 17 16 16 17 17 17 17 17 19 21
31 31 31 29 29 28 27 27 29 27 25 23 24 24 25 26 26 25 24 24 20 18 20 19 19 18 18 18 17 16 16 15 14 15 15 15 16 16 15 16 17 17 18
31 32 31 30 29 29 28 27 27 28 28 28 26 26 25 25 25 23 21 20 21 20 20 20 19 19 19 18 17 17 16 16 15 15 14 14 14 13 13 14 13 14 15
28 31 31 31 30 30 29 28 28 28 28 28 28 25 25 24 21 19 19 17 18 17 18 19 18 18 18 19 19 18 17 16 14 13 12 11 12 11 11 11 11 13 13
23 23 26 31 30 29 29 29 29 28 29 29 28 27 25 23 21 20 18 15 15 15 15 15 15 15 15 14 13 12 13 13 14 13 12 10 7 8 9 9 10 12 14
26 24 25 27 29 28 27 27 27 28 28 28 28 26 25 23 22 20 19 17 16 15 15 15 14 13 12 12 11 11 11 11 9 8 7 7 7 7 9 10 12 14 14
27 27 24 26 27 27 27 26 26 25 26 27 27 26 25 23 22 21 19 18 17 17 15 12 11 11 10 10 10 9 8 8 8 7 8 8 8 9 10 11 13 15 16
29 27 26 24 25 27 27 26 25 25 24 24 26 26 25 25 23 22 20 19 17 15 15 13 10 9 9 8 8 8 8 8 8 7 7 8 9 10 11 13 14 16 17
29 27 27 25 25 26 26 27 26 25 25 25 24 24 25 25 24 23 22 21 19 17 15 12 10 8 8 7 7 8 8 9 9 9 9 9 10 11 12 13 14 16 15
28 27 27 26 27 27 27 26 26 26 26 25 25 24 24 23 24 23 22 21 21 19 17 15 13 11 11 10 9 9 9 8 9 9 10 10 11 11 12 13 13 14 15
27 27 26 26 26 27 27 27 27 26 26 26 26 26 25 24 24 23 21 22 21 20 19 17 16 15 14 13 12 12 11 11 11 12 12 12 12 12 12 13 13 14 14
Wind_Direction
237 238 240 246 250 252 252 250 251 252 251 254 255 252 250 248 246 246 249 246 247 250 253 255 257 258 260 262 265 269 271 276 277 284 289 290 290 290 294 298 301 302 304
243 243 246 251 254 255 255 253 253 253 252 250 253 255 254 252 252 246 249 249 249 251 253 257 259 260 260 261 262 265 268 273 277 279 284 287 289 291 294 297 299 302 303
249 248 251 256 258 261 262 259 256 256 255 252 251 254 255 254 255 253 253 253 253 254 255 257 259 258 259 260 261 263 266 270 275 279 282 287 290 291 294 297 299 300 302
257 257 257 260 264 266 267 267 261 259 256 258 256 257 253 254 255 256 256 255 255 256 256 257 259 259 260 260 261 262 264 266 272 275 280 284 287 291 292 293 295 298 301
262 265 267 269 272 273 272 270 268 264 261 260 259 258 257 254 255 253 256 257 257 257 257 259 261 262 263 262 262 262 261 265 270 273 277 281 283 287 286 292 294 299 302
279 276 280 279 275 272 274 273 271 269 266 262 261 261 259 258 259 257 254 256 257 259 260 262 263 264 264 263 262 264 262 263 268 273 276 277 279 283 287 289 294 297 299
301 301 298 290 283 278 275 273 271 269 269 267 265 263 263 265 264 263 259 259 260 262 262 263 263 265 267 266 264 265 266 265 267 268 272 276 278 280 283 288 291 295 298
313 311 308 302 297 290 283 278 275 273 270 269 270 268 267 266 265 263 262 263 264 263 263 264 263 264 266 266 265 266 269 268 268 267 272 277 282 281 283 288 291 294 299
317 315 311 309 306 301 293 287 283 278 275 273 272 272 269 268 267 266 264 263 264 265 266 267 266 266 266 263 266 266 267 266 266 269 273 276 281 282 282 284 288 291 296
326 319 315 319 312 306 300 293 290 286 282 278 275 275 273 270 269 267 265 265 265 266 267 267 267 267 266 262 264 263 262 262 262 267 273 277 278 280 279 281 286 290 295
325 321 317 322 315 308 302 300 296 292 289 285 282 281 278 276 273 270 267 265 265 266 267 268 269 267 267 263 262 262 263 261 261 266 270 273 276 278 280 282 286 290 294
327 328 328 326 315 313 308 303 300 296 292 289 287 285 286 284 283 276 271 268 268 267 268 270 270 268 266 262 260 263 261 260 262 264 267 269 272 275 279 281 287 292 298
329 327 324 321 319 319 315 309 305 302 296 292 290 287 287 288 287 285 278 276 274 272 273 273 271 269 265 261 259 259 258 262 262 263 266 270 271 277 278 285 289 293 299
328 325 323 322 318 316 314 312 308 304 301 298 293 289 288 289 287 285 282 280 278 276 276 275 273 269 263 262 259 258 263 264 264 265 268 271 273 273 278 283 287 291 296
333 329 325 322 318 315 313 311 307 306 303 298 295 293 289 286 286 287 285 282 280 279 277 274 269 265 263 261 262 264 265 266 267 269 268 268 269 273 278 283 288 292 294
337 333 328 323 317 314 312 307 308 307 305 303 300 296 293 290 286 283 281 282 281 279 277 271 268 264 262 261 260 262 264 265 267 268 267 267 269 270 275 283 290 292 295
338 335 330 325 319 314 311 307 300 301 305 304 306 303 298 293 289 286 280 276 274 273 274 271 268 265 264 264 263 262 265 266 265 266 266 267 270 273 276 282 290 295 299
342 338 332 326 321 315 310 305 302 298 296 295 297 298 299 298 293 289 283 278 273 271 271 269 269 268 267 264 262 263 263 265 265 265 266 269 270 272 277 282 289 296 301
350 341 338 329 321 315 309 303 298 295 294 293 292 293 294 293 297 297 291 279 273 270 272 272 271 269 268 266 264 262 261 261 262 263 263 266 270 272 279 284 291 300 308
355 354 348 332 321 315 310 303 297 294 290 287 287 286 288 289 289 291 293 285 281 276 275 275 275 273 269 266 262 258 258 259 260 262 262 262 265 271 277 286 296 303 309
346 347 347 339 326 318 313 308 303 295 290 287 283 285 284 282 282 284 284 284 283 282 282 278 275 272 268 263 260 257 255 255 252 250 247 253 262 277 288 296 302 309 313
341 342 345 340 330 319 312 308 305 302 294 288 284 282 282 280 279 279 281 282 283 281 281 278 275 273 267 259 253 249 243 240 245 247 251 260 272 284 294 303 308 310 314
335 336 336 338 331 319 311 306 302 300 297 293 285 281 279 275 275 275 275 276 280 281 278 276 272 269 266 261 257 250 242 243 247 252 259 270 281 290 297 303 308 312 314
333 332 332 333 328 318 310 303 300 297 295 291 287 284 278 276 273 273 272 272 271 272 274 273 267 261 256 258 260 261 261 262 265 268 273 278 286 294 301 305 309 314 318
333 332 331 329 323 314 308 303 298 294 291 289 286 283 279 278 273 272 271 271 267 266 265 263 261 258 256 257 260 264 268 270 273 276 282 286 289 294 300 306 311 315 320
333 332 331 328 322 313 306 300 297 294 289 285 282 280 278 275 273 272 271 267 265 263 261 261 259 257 257 259 260 262 268 274 279 282 284 287 289 293 299 305 311 316 320